TimeCDT,TemperatureF,Dew PointF,Humidity,Sea Level PressureIn,VisibilityMPH,Wind Direction,Wind SpeedMPH,Gust SpeedMPH,PrecipitationIn,Events,Conditions,WindDirDegrees,DateUTC
12:53 AM,57.9,42.1,56,30.13,10.0,SSE,9.2,-,N/A,,Scattered Clouds,160,2013-03-28 05:53:00
1:53 AM,57.0,42.1,57,30.13,10.0,South,15.0,-,N/A,,Scattered Clouds,170,2013-03-28 06:53:00
2:53 AM,55.9,43.0,62,30.13,10.0,South,11.5,-,N/A,,Partly Cloudy,170,2013-03-28 07:53:00
3:53 AM,55.0,45.0,69,30.13,10.0,SSE,10.4,-,N/A,,Partly Cloudy,160,2013-03-28 08:53:00
4:53 AM,54.0,46.0,75,30.13,10.0,SSE,12.7,-,N/A,,Partly Cloudy,160,2013-03-28 09:53:00
5:53 AM,52.0,45.0,77,30.14,10.0,SSE,10.4,-,N/A,,Scattered Clouds,160,2013-03-28 10:53:00
6:53 AM,51.1,45.0,80,30.15,10.0,SSE,9.2,-,N/A,,Scattered Clouds,160,2013-03-28 11:53:00
7:53 AM,53.1,46.0,77,30.17,10.0,SSE,11.5,-,N/A,,Partly Cloudy,160,2013-03-28 12:53:00
8:53 AM,55.9,46.9,72,30.19,10.0,South,12.7,-,N/A,,Mostly Cloudy,170,2013-03-28 13:53:00
9:05 AM,57.0,48.0,72,30.20,10.0,South,15.0,-,N/A,,Mostly Cloudy,170,2013-03-28 14:05:00
9:34 AM,59.0,48.9,69,30.21,10.0,SSE,12.7,-,N/A,,Scattered Clouds,160,2013-03-28 14:34:00
9:53 AM,61.0,48.9,64,30.20,10.0,SSE,12.7,-,N/A,,Mostly Cloudy,160,2013-03-28 14:53:00
10:53 AM,64.9,52.0,63,30.20,10.0,South,16.1,-,N/A,,Mostly Cloudy,170,2013-03-28 15:53:00
11:53 AM,66.9,53.1,61,30.19,10.0,SSE,13.8,-,N/A,,Mostly Cloudy,160,2013-03-28 16:53:00
12:05 PM,68.0,53.1,59,30.20,10.0,South,13.8,-,N/A,,Mostly Cloudy,180,2013-03-28 17:05:00
12:53 PM,68.0,53.1,59,30.18,10.0,South,17.3,24.2,N/A,,Overcast,180,2013-03-28 17:53:00
1:45 PM,69.1,54.0,58,30.16,10.0,South,18.4,-,N/A,,Overcast,180,2013-03-28 18:45:00
1:53 PM,69.1,54.0,58,30.15,10.0,South,18.4,-,N/A,,Overcast,190,2013-03-28 18:53:00
2:53 PM,68.0,54.0,61,30.12,10.0,South,15.0,-,N/A,,Overcast,170,2013-03-28 19:53:00
3:53 PM,69.1,54.0,58,30.10,10.0,SSE,17.3,-,N/A,,Overcast,160,2013-03-28 20:53:00
4:53 PM,70.0,54.0,57,30.08,10.0,SSE,17.3,21.9,N/A,,Mostly Cloudy,160,2013-03-28 21:53:00
5:53 PM,71.1,54.0,55,30.07,10.0,SSE,16.1,26.5,N/A,,Mostly Cloudy,160,2013-03-28 22:53:00
6:53 PM,70.0,55.0,59,30.06,10.0,SSE,15.0,-,N/A,,Mostly Cloudy,160,2013-03-28 23:53:00
7:53 PM,69.1,55.0,61,30.07,10.0,SSE,11.5,-,N/A,,Mostly Cloudy,160,2013-03-29 00:53:00
8:53 PM,68.0,55.0,63,30.08,10.0,SSE,11.5,-,N/A,,Mostly Cloudy,150,2013-03-29 01:53:00
9:53 PM,68.0,55.0,63,30.09,10.0,SSE,12.7,-,N/A,,Overcast,160,2013-03-29 02:53:00
10:53 PM,66.9,55.0,66,30.10,10.0,SSE,12.7,-,N/A,,Mostly Cloudy,160,2013-03-29 03:53:00
11:53 PM,66.9,55.0,66,30.11,10.0,South,15.0,-,N/A,,Mostly Cloudy,170,2013-03-29 04:53:00